Lacon, IL

12:12 AM CST on February 07, 2016 (GMT -0600)
Lacon

Weather History for KC75 - May, 2013

Change the Weather History Date:

Wednesday, May 22, 2013

  Actual Average (KPIA) Record (KPIA)
Temperature  
Mean Temperature 65 °F 64 °F  
Max Temperature 72 °F 75 °F 93 °F (1925)
Min Temperature 59 °F 53 °F 35 °F (1963)
Degree Days  
Heating Degree Days 0 4  
Month to date heating degree days 124  
Since 1 July heating degree days 5789  
Cooling Degree Days 0 3  
Month to date cooling degree days 36  
Year to date cooling degree days 50  
Growing Degree Days 15 (Base 50)    
Moisture  
Dew Point 58 °F    
Average Humidity 78    
Maximum Humidity 96    
Minimum Humidity 53    
Precipitation  
Precipitation 0.23 in 0.15 in 1.07 in (1899)
Month to date precipitation 3.13  
Year to date precipitation 13.13  
Snow  
Snow 0.00 in 0.00 in 0.00 in ()
Month to date snowfall 0.0  
Since 1 July snowfall 24.6  
Snow Depth -    
Sea Level Pressure  
Sea Level Pressure 29.70 in    
Wind  
Wind Speed 4 mph (WSW)    
Max Wind Speed 14 mph    
Max Gust Speed 20 mph    
Visibility 10 miles    
Events Rain , Thunderstorm    
T = Trace of Precipitation, MM = Missing Value Source: NWS Daily Summary

Daily Weather History Graph

Daily Weather History Graph

Search for Another Location

Airport or City:

Trip Planner

Search our weather history database for the weather conditions in past years. The results will help you decide how hot, cold, wet, or windy it might be!

Date:

Astronomy

May. 22, 2013 Rise Set
Actual Time 5:33 AM CDT 8:15 PM CDT
Civil Twilight 5:01 AM CDT 8:47 PM CDT
Nautical Twilight 4:21 AM CDT 9:27 PM CDT
Astronomical Twilight 3:35 AM CDT 10:13 PM CDT
Moon 5:36 PM CDT (5/22) 3:38 AM CDT (5/22)
Length of Visible Light 15h 46m
Length of Day
14h 42m
Waxing Gibbous, 91% of the Moon is Illuminated
May 22
Waxing Gibbous
May 24
Full
May 31
Last Quarter
Jun 8
New
Jun 16
First Quarter

Hourly Weather History & Observations

Time (CDT) Temp. Dew Point Humidity Pressure Visibility Wind Dir Wind Speed Gust Speed Precip Events Conditions
12:15 AM 67.3 °F 63.1 °F 87% 29.68 in 10.0 mi Calm Calm - N/A   Mostly Cloudy
12:35 AM 66.7 °F 63.3 °F 89% 29.68 in 10.0 mi Calm Calm - N/A   Mostly Cloudy
12:55 AM 67.6 °F 64.2 °F 89% 29.68 in 10.0 mi Calm Calm - N/A   Overcast
1:15 AM 68.0 °F 64.0 °F 87% 29.68 in 10.0 mi Calm Calm - N/A   Overcast
1:35 AM 67.5 °F 64.4 °F 90% 29.67 in 10.0 mi SSE 3.5 mph - N/A   Overcast
1:55 AM 67.1 °F 64.4 °F 91% 29.67 in 10.0 mi SSW 3.5 mph - N/A   Overcast
2:15 AM 68.0 °F 63.9 °F 87% 29.67 in 10.0 mi South 5.8 mph - N/A Rain Light Rain
2:35 AM 66.4 °F 63.7 °F 91% 29.67 in 5.0 mi Calm Calm - 0.03 in Rain Rain
2:55 AM 66.2 °F 63.3 °F 90% 29.67 in 10.0 mi Calm Calm - 0.03 in   Overcast
3:15 AM 66.0 °F 63.0 °F 90% 29.67 in 10.0 mi South 5.8 mph - N/A Rain Light Rain
3:35 AM 64.8 °F 63.0 °F 94% 29.67 in 10.0 mi ESE 4.6 mph - 0.04 in Rain Light Rain
3:55 AM 64.6 °F 62.4 °F 93% 29.66 in 10.0 mi SSE 3.5 mph - 0.04 in   Overcast
4:15 AM 64.0 °F 62.8 °F 96% 29.66 in 10.0 mi Calm Calm - N/A   Overcast
4:35 AM 63.9 °F 62.6 °F 96% 29.65 in 10.0 mi Calm Calm - N/A   Overcast
4:55 AM 63.7 °F 61.9 °F 94% 29.66 in 10.0 mi SSE 5.8 mph - N/A   Scattered Clouds
5:15 AM 63.9 °F 61.7 °F 93% 29.65 in 10.0 mi SE 4.6 mph - N/A   Mostly Cloudy
5:55 AM 63.5 °F 62.2 °F 96% 29.66 in 10.0 mi WSW 4.6 mph - N/A Rain Rain
6:15 AM 63.7 °F 62.6 °F 96% 29.67 in 10.0 mi SSW 3.5 mph - 0.01 in Rain Light Rain
6:35 AM 63.9 °F 62.6 °F 96% 29.67 in 10.0 mi SSW 3.5 mph - 0.01 in   Drizzle
6:55 AM 64.4 °F 62.8 °F 94% 29.66 in 10.0 mi Calm Calm - 0.01 in Rain Rain
7:15 AM 64.4 °F 61.0 °F 89% 29.65 in 10.0 mi Calm Calm - N/A   Clear
7:35 AM 64.6 °F 60.6 °F 87% 29.65 in 10.0 mi WSW 3.5 mph - N/A   Light Drizzle
7:55 AM 64.6 °F 60.6 °F 87% 29.64 in 10.0 mi Calm Calm - N/A   Mostly Cloudy
8:15 AM 65.1 °F 61.2 °F 87% 29.66 in 10.0 mi SW 5.8 mph - N/A   Mostly Cloudy
8:35 AM 65.3 °F 60.1 °F 83% 29.66 in 10.0 mi WSW 8.1 mph - N/A   Mostly Cloudy
8:55 AM 65.3 °F 60.3 °F 84% 29.67 in 10.0 mi SW 6.9 mph - N/A   Overcast
9:15 AM 64.4 °F 59.5 °F 84% 29.67 in 10.0 mi WSW 8.1 mph - N/A   Overcast
9:35 AM 62.6 °F 58.6 °F 87% 29.69 in 10.0 mi West 12.7 mph 17.3 mph 0.01 in Rain Heavy Rain
9:55 AM 60.3 °F 57.9 °F 92% 29.70 in 4.0 mi WSW 11.5 mph - 0.09 in Rain , Thunderstorm Rain
10:15 AM 59.0 °F 57.0 °F 93% 29.70 in 4.0 mi West 3.5 mph - 0.06 in Rain Rain
10:35 AM 61.2 °F 57.7 °F 88% 29.70 in 10.0 mi NW 3.5 mph - 0.06 in   Mostly Cloudy
10:55 AM 63.9 °F 59.0 °F 84% 29.69 in 10.0 mi West 3.5 mph - 0.06 in   Scattered Clouds
11:15 AM 66.0 °F 58.5 °F 77% 29.69 in 10.0 mi WSW 4.6 mph - N/A   Scattered Clouds
11:35 AM 65.8 °F 57.4 °F 74% 29.70 in 10.0 mi WSW 3.5 mph - N/A   Scattered Clouds
11:55 AM 67.5 °F 58.1 °F 72% 29.70 in 10.0 mi WSW 5.8 mph - N/A   Scattered Clouds
12:15 PM 69.3 °F 55.8 °F 62% 29.70 in 10.0 mi WSW 5.8 mph - N/A   Clear
12:55 PM 69.8 °F 54.3 °F 58% 29.70 in 10.0 mi WSW 10.4 mph 17.3 mph N/A   Mostly Cloudy
1:15 PM 71.1 °F 53.2 °F 53% 29.70 in 10.0 mi WSW 10.4 mph 16.1 mph N/A   Mostly Cloudy
1:35 PM 69.8 °F 53.4 °F 56% 29.70 in 10.0 mi SW 10.4 mph 16.1 mph N/A   Mostly Cloudy
1:55 PM 70.0 °F 54.5 °F 58% 29.69 in 10.0 mi WSW 8.1 mph - N/A   Mostly Cloudy
2:15 PM 70.3 °F 54.7 °F 58% 29.69 in 10.0 mi SW 8.1 mph - N/A   Mostly Cloudy
2:35 PM 70.2 °F 54.5 °F 57% 29.70 in 10.0 mi West 9.2 mph 17.3 mph N/A   Mostly Cloudy
2:55 PM 70.3 °F 55.8 °F 60% 29.70 in 10.0 mi WSW 9.2 mph - N/A   Mostly Cloudy
3:15 PM 70.3 °F 54.0 °F 56% 29.70 in 10.0 mi WSW 13.8 mph 18.4 mph N/A   Mostly Cloudy
3:35 PM 70.0 °F 55.0 °F 59% 29.70 in 10.0 mi West 10.4 mph - N/A   Mostly Cloudy
3:55 PM 68.9 °F 54.9 °F 61% 29.70 in 10.0 mi West 9.2 mph - N/A   Overcast
4:15 PM 69.4 °F 55.0 °F 60% 29.70 in 10.0 mi WSW 10.4 mph - N/A   Overcast
4:35 PM 68.9 °F 55.0 °F 61% 29.70 in 10.0 mi WSW 10.4 mph - N/A   Overcast
4:55 PM 67.6 °F 54.5 °F 63% 29.71 in 10.0 mi West 12.7 mph 18.4 mph N/A   Overcast
5:15 PM 67.1 °F 54.0 °F 63% 29.72 in 10.0 mi West 11.5 mph 18.4 mph N/A   Overcast
5:35 PM 67.1 °F 54.3 °F 63% 29.72 in 10.0 mi West 6.9 mph 16.1 mph N/A   Overcast
5:55 PM 67.1 °F 54.1 °F 63% 29.72 in 10.0 mi WSW 10.4 mph - N/A   Overcast
6:15 PM 66.4 °F 54.7 °F 66% 29.73 in 10.0 mi West 5.8 mph - N/A   Overcast
6:35 PM 66.0 °F 54.3 °F 66% 29.73 in 10.0 mi West 8.1 mph - N/A   Overcast
6:55 PM 65.1 °F 54.1 °F 68% 29.73 in 10.0 mi West 10.4 mph 19.6 mph N/A   Mostly Cloudy
7:15 PM 63.9 °F 53.8 °F 70% 29.73 in 10.0 mi West 11.5 mph 16.1 mph N/A   Mostly Cloudy
7:35 PM 63.5 °F 54.3 °F 72% 29.74 in 10.0 mi West 10.4 mph 16.1 mph N/A   Overcast
7:55 PM 63.0 °F 54.1 °F 73% 29.75 in 10.0 mi West 6.9 mph 17.3 mph N/A   Overcast
8:15 PM 62.6 °F 54.5 °F 75% 29.75 in 10.0 mi West 6.9 mph - N/A   Overcast
8:35 PM 62.6 °F 54.5 °F 75% 29.75 in 10.0 mi WSW 5.8 mph - N/A   Overcast
8:55 PM 62.6 °F 54.5 °F 75% 29.76 in 10.0 mi WSW 5.8 mph - N/A   Overcast
9:15 PM 62.4 °F 54.5 °F 75% 29.77 in 10.0 mi WSW 5.8 mph - N/A   Overcast
9:35 PM 62.1 °F 54.5 °F 76% 29.78 in 10.0 mi SW 5.8 mph - N/A   Overcast
9:55 PM 62.1 °F 54.5 °F 76% 29.78 in 10.0 mi WSW 8.1 mph - N/A   Overcast
10:35 PM 61.7 °F 54.5 °F 77% 29.78 in 10.0 mi WSW 8.1 mph - N/A   Overcast
10:55 PM 61.7 °F 54.7 °F 78% 29.79 in 10.0 mi WSW 6.9 mph - N/A   Overcast
11:15 PM 61.2 °F 55.0 °F 80% 29.79 in 10.0 mi West 3.5 mph - N/A   Overcast
11:55 PM 60.8 °F 55.0 °F 81% 29.80 in 10.0 mi West 4.6 mph - N/A   Overcast